period_start,C,m1,H,J0,J1,J2,J3,J4,J5,JA,JB,JC,JD,JJ,JK,JN,#
2015-05-11 00:00:38,0.07,1.08,0.00,24.22,27.62,30.26,4.59,26.80,992.69,2034.99,2965.57,3018.31,3248.01,349.90,338.16,33.24,0000 0000 0000 0000 000000
2015-05-11 00:05:39,0.03,1.08,0.00,24.23,27.64,30.27,4.63,26.82,992.70,2034.99,2964.85,3018.00,3247.64,349.62,337.68,33.27,0000 0000 0000 0000 000000
2015-05-11 00:10:41,0.07,1.08,0.00,24.25,27.65,30.28,4.64,26.76,992.69,2034.98,2964.06,3017.45,3247.03,349.92,338.00,33.30,0000 0000 0000 0000 000000
2015-05-11 00:15:42,0.05,1.09,0.00,24.25,27.65,30.28,4.64,26.71,992.69,2034.98,2963.32,3017.01,3246.53,350.27,338.35,33.33,0000 0000 0000 0000 000000
2015-05-11 00:20:43,0.02,1.09,0.00,24.25,27.65,30.30,4.63,26.82,992.69,2034.96,2962.97,3016.89,3246.03,350.33,338.31,33.36,0000 0000 0000 0000 000000
2015-05-11 00:25:44,0.07,1.09,0.00,24.28,27.67,30.31,4.60,26.79,992.70,2034.94,2962.18,3016.13,3245.86,349.88,337.93,33.39,0000 0000 0000 0000 000000
2015-05-11 00:30:45,0.02,1.09,0.00,24.30,27.67,30.32,4.61,26.77,992.70,2034.95,2961.99,3016.00,3245.13,349.70,337.61,33.41,0000 0000 0000 0000 000000
2015-05-11 00:35:47,0.02,1.09,0.00,24.31,27.67,30.32,4.67,26.96,992.70,2034.83,2961.49,3015.66,3244.91,349.96,337.93,33.44,0000 0000 0000 0000 000000
2015-05-11 00:40:48,0.03,1.09,0.00,24.31,27.69,30.34,4.67,26.88,992.70,2034.52,2960.99,3015.02,3244.13,350.06,338.24,33.47,0000 0000 0000 0000 000000
2015-05-11 00:45:49,0.02,1.09,0.00,24.33,27.70,30.34,4.68,26.82,992.71,2034.56,2960.30,3014.94,3244.00,349.84,337.76,33.50,0000 0000 0000 0000 000000
2015-05-11 00:50:50,0.05,1.09,0.00,24.35,27.70,30.35,4.68,26.71,992.71,2034.45,2959.93,3014.19,3243.46,350.67,338.51,33.53,0000 0000 0000 0000 000000
2015-05-11 00:55:52,0.03,1.09,0.00,24.37,27.72,30.35,4.65,26.81,992.73,2034.39,2959.19,3014.00,3243.01,350.07,337.94,33.56,0000 0000 0000 0000 000000
2015-05-11 01:00:53,-0.02,1.09,0.00,24.37,27.72,30.36,4.64,26.82,992.73,2034.20,2958.99,3013.69,3242.78,349.78,337.97,33.59,0000 0000 0000 0000 000000
2015-05-11 01:05:55,0.06,1.10,0.00,24.37,27.72,30.38,4.64,26.73,992.71,2034.14,2958.36,3013.08,3242.07,349.76,337.64,33.62,0000 0000 0000 0000 000000
2015-05-11 01:10:56,0.01,1.10,0.00,24.37,27.74,30.38,4.63,26.83,992.72,2034.07,2957.99,3012.97,3241.94,349.77,337.76,33.65,0000 0000 0000 0000 000000
2015-05-11 01:15:57,0.08,1.10,0.00,24.39,27.75,30.40,4.65,26.57,992.70,2034.05,2957.28,3012.34,3241.17,350.23,338.42,33.68,0000 0000 0000 0000 000000
2015-05-11 01:20:58,0.01,1.10,0.00,24.41,27.75,30.41,4.62,26.71,992.69,2034.05,2956.97,3012.01,3240.99,349.84,337.62,33.71,0000 0000 0000 0000 000000
2015-05-11 01:25:59,0.07,1.10,0.00,24.43,27.77,30.42,4.62,26.73,992.69,2034.01,2956.19,3011.71,3240.34,349.94,337.82,33.74,0000 0000 0000 0000 000000
2015-05-11 01:31:01,0.05,1.10,0.00,24.44,27.77,30.42,4.64,26.82,992.69,2034.00,2955.52,3011.03,3239.97,350.37,338.11,33.77,0000 0000 0000 0000 000000
2015-05-11 01:36:02,0.06,1.10,0.00,24.45,27.78,30.43,4.68,26.77,992.69,2034.00,2954.85,3010.67,3239.16,350.60,338.45,33.80,0000 0000 0000 0000 000000
2015-05-11 01:41:03,0.04,1.11,0.00,24.45,27.80,30.44,4.68,26.73,992.69,2034.00,2954.05,3010.02,3238.93,350.82,338.52,33.82,0000 0000 0000 0000 000000
2015-05-11 01:46:05,0.03,1.11,0.00,24.47,27.80,30.44,4.58,26.71,992.70,2034.00,2953.85,3009.94,3238.29,349.43,337.21,33.85,0000 0000 0000 0000 000000
2015-05-11 01:51:06,0.07,1.11,0.00,24.51,27.81,30.46,4.56,26.71,992.70,2034.00,2953.03,3009.33,3237.94,349.50,337.21,33.88,0000 0000 0000 0000 000000
2015-05-11 01:56:08,0.04,1.11,0.00,24.54,27.82,30.46,4.56,26.72,992.70,2034.00,2952.50,3009.00,3237.29,349.41,337.27,33.91,0000 0000 0000 0000 000000
2015-05-11 02:01:09,0.04,1.11,0.00,24.56,27.82,30.47,4.59,26.76,992.73,2034.00,2952.01,3008.72,3237.00,349.51,337.25,33.94,0000 0000 0000 0000 000000
2015-05-11 02:06:10,0.07,1.11,0.00,24.57,27.85,30.48,4.65,26.73,992.77,2034.00,2951.31,3008.04,3236.40,349.86,337.61,33.97,0000 0000 0000 0000 000000
2015-05-11 02:11:11,0.03,1.11,0.00,24.61,27.85,30.48,4.59,26.76,992.74,2033.98,2950.86,3007.78,3235.97,349.68,337.38,34.00,0000 0000 0000 0000 000000
2015-05-11 02:16:12,0.06,1.12,0.00,24.62,27.87,30.50,4.59,26.73,992.75,2033.95,2950.26,3007.12,3235.36,349.62,337.13,34.03,0000 0000 0000 0000 000000
2015-05-11 02:21:14,0.02,1.12,0.00,24.63,27.87,30.52,4.54,26.72,992.76,2033.97,2949.88,3006.97,3235.00,349.55,337.39,34.06,0000 0000 0000 0000 000000
2015-05-11 02:26:15,0.06,1.12,0.00,24.65,27.90,30.52,4.65,26.80,992.80,2033.86,2949.07,3006.41,3234.36,349.99,337.65,34.09,0000 0000 0000 0000 000000
2015-05-11 02:31:16,0.02,1.12,0.00,24.67,27.90,30.53,4.69,26.81,993.05,2033.73,2948.52,3005.99,3233.99,350.05,337.89,34.12,0000 0000 0000 0000 000000
2015-05-11 02:36:18,0.03,1.12,0.00,24.68,27.92,30.54,4.66,26.93,993.15,2033.64,2947.80,3005.60,3233.39,350.09,337.49,34.15,0000 0000 0000 0000 000000
2015-05-11 02:41:19,0.02,1.12,0.00,24.70,27.92,30.56,4.63,26.70,993.17,2033.29,2947.03,3005.01,3232.94,350.15,337.67,34.18,0000 0000 0000 0000 000000
2015-05-11 02:46:20,0.07,1.12,0.00,24.72,27.95,30.56,4.64,26.79,993.18,2033.34,2946.60,3004.79,3232.28,350.05,337.76,34.21,0000 0000 0000 0000 000000
2015-05-11 02:51:21,0.02,1.12,0.00,24.74,27.95,30.57,4.70,26.81,993.18,2033.19,2945.97,3004.06,3231.98,349.95,337.58,34.23,0000 0000 0000 0000 000000
2015-05-11 02:56:22,0.04,1.12,0.00,24.73,27.97,30.58,4.59,26.72,993.18,2033.08,2945.16,3003.86,3231.23,350.03,337.72,34.26,0000 0000 0000 0000 000000
2015-05-11 03:01:23,0.06,1.13,0.00,24.75,27.97,30.60,4.62,26.78,993.18,2033.04,2944.50,3003.08,3230.85,349.96,337.66,34.29,0000 0000 0000 0000 000000
2015-05-11 03:06:25,0.03,1.13,0.00,24.79,27.99,30.60,4.64,26.76,993.18,2033.03,2944.01,3002.95,3230.12,349.78,337.42,34.32,0000 0000 0000 0000 000000
2015-05-11 03:11:26,0.06,1.13,0.00,24.81,28.00,30.62,4.64,26.78,993.18,2033.02,2943.55,3002.25,3229.97,349.77,337.25,34.35,0000 0000 0000 0000 000000
2015-05-11 03:16:27,0.03,1.13,0.00,24.83,28.01,30.63,4.65,26.74,993.18,2033.00,2943.00,3001.99,3229.17,349.83,337.63,34.38,0000 0000 0000 0000 000000
2015-05-11 03:21:29,0.05,1.13,0.00,24.85,28.02,30.63,4.70,26.75,993.18,2033.00,2942.31,3001.74,3228.99,349.97,337.35,34.41,0000 0000 0000 0000 000000
2015-05-11 03:26:30,0.05,1.13,0.00,24.87,28.03,30.65,4.63,26.93,993.18,2033.00,2941.86,3001.06,3228.29,349.77,337.31,34.44,0000 0000 0000 0000 000000
2015-05-11 03:31:31,0.03,1.14,0.00,24.87,28.05,30.65,4.61,26.75,993.19,2033.00,2941.12,3000.96,3227.99,350.01,337.60,34.47,0000 0000 0000 0000 000000
2015-05-11 03:36:32,0.09,1.14,0.00,24.88,28.06,30.65,4.64,26.91,993.19,2033.00,2940.58,3000.25,3227.42,349.63,337.17,34.50,0000 0000 0000 0000 000000
2015-05-11 03:41:34,0.01,1.14,0.00,24.88,28.07,30.67,4.54,26.75,993.20,2033.00,2939.99,3000.00,3226.99,349.66,337.20,34.53,0000 0000 0000 0000 000000
2015-05-11 03:46:35,0.02,1.14,0.00,24.90,28.08,30.67,4.58,26.75,993.19,2033.00,2939.83,2999.83,3226.70,350.04,337.55,34.56,0000 0000 0000 0000 000000
2015-05-11 03:51:36,0.03,1.14,0.00,24.92,28.10,30.66,4.60,26.90,993.18,2033.00,2939.92,2999.41,3226.28,349.67,337.04,34.59,0000 0000 0000 0000 000000
2015-05-11 03:56:37,0.04,1.14,0.00,24.94,28.11,30.69,4.59,26.83,993.19,2032.99,2939.29,2999.05,3226.02,350.04,337.55,34.62,0000 0000 0000 0000 000000
2015-05-11 04:01:39,-0.00,1.14,0.00,24.94,28.12,30.71,4.69,26.98,993.20,2032.98,2939.02,2999.00,3226.00,349.97,337.42,34.65,0000 0000 0000 0000 000000
2015-05-11 04:06:40,-0.00,1.14,0.00,24.95,28.13,30.73,4.60,26.80,993.19,2032.97,2939.00,2998.98,3225.98,350.07,337.53,34.67,0000 0000 0000 0000 000000
2015-05-11 04:11:42,-0.00,1.14,0.00,24.95,28.15,30.74,4.57,26.81,993.18,2032.94,2938.97,2998.98,3225.94,349.81,337.24,34.70,0000 0000 0000 0000 000000
2015-05-11 04:16:43,0.00,1.14,0.00,24.95,28.15,30.76,4.66,26.89,993.18,2032.88,2938.93,2998.82,3225.60,350.00,337.58,34.73,0000 0000 0000 0000 000000
2015-05-11 04:21:44,-0.00,1.14,0.00,24.97,28.16,30.78,4.62,26.88,993.19,2032.68,2938.78,2998.36,3225.15,349.81,337.25,34.76,0000 0000 0000 0000 000000
2015-05-11 04:26:45,0.01,1.14,0.00,24.98,28.17,30.78,4.58,26.78,993.18,2032.45,2938.20,2998.06,3225.02,349.45,337.13,34.79,0000 0000 0000 0000 000000
2015-05-11 04:31:47,-0.05,1.14,0.00,25.00,28.17,30.78,4.64,26.90,993.19,2032.15,2938.03,2998.01,3225.00,349.89,337.33,34.82,0000 0000 0000 0000 000000
2015-05-11 04:36:48,-0.01,1.14,0.00,25.02,28.19,30.80,4.63,27.01,993.19,2032.06,2937.99,2997.99,3224.98,350.47,337.84,34.85,0000 0000 0000 0000 000000
2015-05-11 04:41:49,0.01,1.14,0.00,25.06,28.20,30.81,4.62,26.88,993.21,2032.04,2937.92,2997.95,3224.69,349.90,337.23,34.88,0000 0000 0000 0000 000000
2015-05-11 04:46:50,0.05,1.14,0.00,25.10,28.21,30.82,4.62,26.81,993.21,2032.01,2937.41,2997.56,3224.14,349.75,336.92,34.91,0000 0000 0000 0000 000000
2015-05-11 04:51:52,0.03,1.14,0.00,25.12,28.22,30.83,4.56,26.98,993.23,2032.00,2937.04,2997.09,3224.01,349.60,336.89,34.94,0000 0000 0000 0000 000000
2015-05-11 04:56:53,-0.00,1.14,0.00,25.14,28.23,30.83,4.61,26.96,993.23,2032.00,2937.09,2997.03,3224.00,349.89,336.93,34.97,0000 0000 0000 0000 000000
2015-05-11 05:01:54,0.00,0.23,0.00,25.16,28.25,30.85,4.06,22.92,993.27,2032.83,3385.87,3263.90,3539.42,308.79,296.02,0.00,0000 0000 0000 0000 000000
2015-05-11 05:06:56,0.00,0.00,0.00,25.18,28.26,30.85,4.61,26.35,993.25,2033.00,3473.10,3316.77,3601.68,349.72,336.88,0.03,0000 0000 0000 0000 000000
2015-05-11 05:11:57,0.00,0.00,0.00,25.20,28.28,30.87,4.64,26.43,993.21,2033.00,3472.23,3316.22,3601.03,350.03,337.27,0.06,0000 0000 0000 0000 000000
2015-05-11 05:16:58,0.01,0.00,0.00,25.22,28.30,30.90,4.63,26.40,993.22,2033.00,3471.86,3316.02,3600.54,350.28,337.43,0.09,0000 0000 0000 0000 000000
2015-05-11 05:22:00,0.02,0.00,0.00,25.24,28.31,30.92,4.69,26.38,993.21,2032.99,3471.07,3315.93,3599.99,350.20,337.38,0.12,0000 0000 0000 0000 000000
2015-05-11 05:27:01,0.04,0.00,0.00,25.25,28.32,30.94,4.52,26.42,993.20,2032.97,3470.67,3315.23,3599.32,349.45,336.60,0.14,0000 0000 0000 0000 000000
2015-05-11 05:32:02,0.02,0.00,0.00,25.25,28.35,30.96,4.63,26.51,993.22,2032.90,3470.03,3315.00,3598.99,350.18,337.37,0.17,0000 0000 0000 0000 000000
2015-05-11 05:37:03,-0.07,0.00,0.00,25.27,28.36,30.99,4.64,26.55,993.31,2032.47,3469.74,3314.93,3598.76,350.19,337.35,0.20,0000 0000 0000 0000 000000
2015-05-11 05:42:05,0.05,0.00,0.00,25.27,28.38,31.00,4.64,26.48,993.26,2032.10,3469.04,3314.15,3598.10,349.96,336.99,0.23,0000 0000 0000 0000 000000
2015-05-11 05:47:06,0.03,0.00,0.00,25.29,28.40,31.02,4.64,26.44,993.25,2032.04,3468.35,3314.00,3597.43,350.20,337.19,0.26,0000 0000 0000 0000 000000
2015-05-11 05:52:07,0.01,0.00,0.00,25.30,28.41,31.04,4.66,26.55,993.31,2032.02,3468.00,3313.84,3597.00,350.04,337.48,0.29,0000 0000 0000 0000 000000
2015-05-11 05:57:09,0.05,0.00,0.00,25.31,28.43,31.07,4.69,26.55,993.37,2032.01,3467.64,3313.20,3596.78,350.23,337.43,0.32,0000 0000 0000 0000 000000
2015-05-11 06:02:10,0.03,0.01,0.00,25.32,28.45,31.09,4.56,26.58,993.57,2032.00,3467.03,3313.02,3596.12,350.07,337.17,0.35,0000 0000 0000 0000 000000
2015-05-11 06:07:11,0.04,0.01,0.00,25.32,28.46,31.10,4.65,26.50,993.59,2032.00,3466.57,3312.83,3595.78,349.86,337.09,0.38,0000 0000 0000 0000 000000
2015-05-11 06:12:13,0.04,0.01,0.00,25.32,28.48,31.12,4.71,26.58,993.49,2032.00,3466.00,3312.19,3595.08,350.46,337.58,0.41,0000 0000 0000 0000 000000
2015-05-11 06:17:14,0.03,0.01,0.00,25.32,28.50,31.14,4.56,26.70,993.35,2031.99,3465.34,3312.00,3594.79,350.00,337.09,0.44,0000 0000 0000 0000 000000
2015-05-11 06:22:15,0.02,0.01,0.00,25.31,28.51,31.16,4.64,26.73,993.49,2031.98,3464.98,3311.92,3594.11,350.04,337.15,0.47,0000 0000 0000 0000 000000
2015-05-11 06:27:17,0.05,0.01,0.00,25.30,28.52,31.18,4.62,26.69,993.64,2031.97,3464.53,3311.31,3593.97,350.28,337.60,0.50,0000 0000 0000 0000 000000
2015-05-11 06:32:18,0.02,0.01,0.00,25.32,28.55,31.20,4.51,26.68,993.66,2031.86,3464.00,3311.01,3593.23,349.47,336.91,0.53,0000 0000 0000 0000 000000
2015-05-11 06:37:19,-0.08,0.01,0.00,25.32,28.55,31.21,4.61,26.66,993.67,2031.45,3463.82,3310.98,3593.13,349.95,337.08,0.55,0000 0000 0000 0000 000000
2015-05-11 06:42:20,0.06,0.01,0.00,25.32,28.57,31.22,4.59,26.68,993.66,2031.19,3463.12,3310.32,3592.56,349.85,337.22,0.58,0000 0000 0000 0000 000000
2015-05-11 06:47:22,0.01,0.01,0.00,25.30,28.57,31.24,4.58,26.73,993.67,2031.09,3462.80,3310.02,3592.05,349.74,336.97,0.61,0000 0000 0000 0000 000000
2015-05-11 06:52:24,0.01,0.01,0.00,25.30,28.60,31.24,4.63,26.68,993.67,2031.05,3462.07,3309.98,3591.92,350.07,337.24,0.64,0000 0000 0000 0000 000000
2015-05-11 06:57:25,0.02,0.01,0.00,25.30,28.60,31.26,4.64,26.68,993.67,2031.01,3461.99,3309.88,3591.27,350.68,337.77,0.67,0000 0000 0000 0000 000000
2015-05-11 07:02:26,0.06,0.01,0.00,25.30,28.61,31.26,4.65,26.80,993.68,2031.00,3461.26,3309.22,3591.01,350.47,337.45,0.70,0000 0000 0000 0000 000000
2015-05-11 07:07:28,0.01,0.01,0.00,25.30,28.62,31.28,4.70,26.68,993.68,2031.00,3460.99,3309.00,3590.77,350.13,337.40,0.73,0000 0000 0000 0000 000000
2015-05-11 07:12:29,0.03,0.01,0.00,25.29,28.62,31.27,4.63,26.73,993.69,2031.00,3460.49,3308.97,3590.15,349.95,337.26,0.76,0000 0000 0000 0000 000000
2015-05-11 07:17:31,0.03,0.02,0.00,25.27,28.64,31.29,4.60,26.69,993.69,2031.00,3460.00,3308.63,3589.99,348.86,336.27,0.79,0000 0000 0000 0000 000000
2015-05-11 07:22:32,0.03,0.02,0.00,25.27,28.65,31.30,4.70,26.62,993.69,2031.00,3459.71,3308.13,3589.76,350.29,337.41,0.82,0000 0000 0000 0000 000000
2015-05-11 07:27:33,0.03,0.02,0.00,25.27,28.65,31.30,4.68,26.69,993.68,2031.00,3459.04,3308.00,3589.07,350.29,337.11,0.85,0000 0000 0000 0000 000000
2015-05-11 07:32:34,0.00,0.02,0.00,25.25,28.65,31.31,4.61,26.65,993.69,2030.99,3458.97,3307.98,3588.99,350.20,337.36,0.88,0000 0000 0000 0000 000000
2015-05-11 07:37:36,0.04,0.02,0.00,25.23,28.65,31.31,4.57,26.67,993.70,2030.97,3458.34,3307.62,3588.94,349.72,337.04,0.91,0000 0000 0000 0000 000000
2015-05-11 07:42:37,0.04,0.02,0.00,25.22,28.67,31.32,4.63,26.81,993.70,2030.93,3457.78,3307.02,3588.10,349.65,337.07,0.94,0000 0000 0000 0000 000000
2015-05-11 07:47:39,0.02,0.02,0.00,25.20,28.67,31.32,4.67,26.82,993.68,2030.95,3457.14,3307.00,3587.83,349.64,336.98,0.97,0000 0000 0000 0000 000000
2015-05-11 07:52:40,0.02,0.02,0.00,25.19,28.67,31.32,4.59,26.79,993.71,2030.89,3456.99,3306.79,3587.18,349.85,337.25,0.99,0000 0000 0000 0000 000000
2015-05-11 07:57:41,0.03,0.02,0.00,25.17,28.67,31.33,4.61,26.73,993.74,2030.88,3456.54,3306.15,3587.00,350.09,337.48,1.02,0000 0000 0000 0000 000000
2015-05-11 08:02:43,0.01,0.02,0.00,25.15,28.67,31.34,4.67,26.64,993.93,2030.86,3456.02,3306.01,3586.82,350.13,337.64,1.05,0000 0000 0000 0000 000000
2015-05-11 08:07:44,0.01,0.02,0.00,25.12,28.67,31.34,4.64,26.70,994.09,2030.73,3455.85,3305.99,3586.09,350.36,337.87,1.08,0000 0000 0000 0000 000000
2015-05-11 08:12:45,0.05,0.02,0.00,25.11,28.67,31.34,4.73,26.72,994.02,2030.83,3455.10,3305.88,3586.00,350.05,337.62,1.11,0000 0000 0000 0000 000000
2015-05-11 08:17:47,0.02,0.03,0.00,25.08,28.67,31.34,4.58,26.81,994.12,2030.74,3454.94,3305.25,3585.64,349.41,337.39,1.14,0000 0000 0000 0000 000000
2015-05-11 08:22:48,0.05,0.03,0.00,25.06,28.67,31.34,4.64,26.82,994.13,2030.72,3454.15,3305.01,3585.04,349.82,337.64,1.17,0000 0000 0000 0000 000000
2015-05-11 08:27:49,0.01,0.03,0.00,25.04,28.66,31.34,4.56,26.83,994.12,2030.77,3453.98,3305.00,3584.99,349.77,337.57,1.20,0000 0000 0000 0000 000000
2015-05-11 08:32:50,0.05,0.03,0.00,25.01,28.65,31.35,4.65,26.85,994.14,2030.87,3453.46,3304.88,3584.66,350.28,337.98,1.23,0000 0000 0000 0000 000000
2015-05-11 08:37:52,-0.02,0.03,0.00,25.00,28.65,31.35,4.59,26.83,994.14,2030.70,3453.00,3304.45,3584.58,350.05,337.69,1.26,0000 0000 0000 0000 000000
2015-05-11 08:42:53,0.08,0.03,0.00,24.97,28.65,31.35,4.71,26.82,994.15,2030.78,3452.54,3304.03,3584.07,349.98,337.84,1.29,0000 0000 0000 0000 000000
2015-05-11 08:47:54,0.03,0.03,0.00,24.94,28.64,31.34,4.63,26.81,994.15,2030.86,3452.01,3304.00,3583.67,350.32,338.10,1.32,0000 0000 0000 0000 000000
2015-05-11 08:52:55,0.03,0.03,0.00,24.92,28.62,31.36,4.62,26.91,994.16,2030.87,3451.50,3303.96,3583.03,350.19,338.06,1.35,0000 0000 0000 0000 000000
2015-05-11 08:57:56,0.05,0.03,0.00,24.89,28.62,31.33,4.66,26.82,994.16,2030.94,3450.95,3303.40,3583.00,350.38,338.21,1.38,0000 0000 0000 0000 000000
2015-05-11 09:02:57,0.04,0.04,0.00,24.87,28.60,31.33,4.64,26.88,994.16,2030.96,3450.19,3303.02,3582.67,350.19,337.78,1.40,0000 0000 0000 0000 000000
2015-05-11 09:07:58,0.04,0.04,0.00,24.84,28.60,31.31,4.60,26.86,994.16,2030.97,3449.48,3302.88,3582.03,350.23,338.13,1.43,0000 0000 0000 0000 000000
2015-05-11 09:13:00,0.07,0.04,0.00,24.81,28.58,31.31,4.61,26.84,994.16,2030.97,3448.67,3302.14,3581.43,349.75,337.69,1.46,0000 0000 0000 0000 000000
2015-05-11 09:18:01,0.02,0.04,0.00,24.77,28.57,31.31,4.65,26.83,994.17,2030.98,3447.83,3301.98,3580.96,350.39,338.32,1.49,0000 0000 0000 0000 000000
2015-05-11 09:23:03,0.09,0.04,0.00,24.77,28.55,31.30,4.61,26.90,994.16,2030.98,3446.57,3301.24,3580.19,349.33,337.39,1.52,0000 0000 0000 0000 000000
2015-05-11 09:28:04,0.08,0.04,0.00,24.77,28.54,31.26,4.55,26.82,994.17,2030.99,3445.38,3300.69,3579.34,349.61,337.61,1.55,0000 0000 0000 0000 000000
2015-05-11 09:33:05,0.07,0.05,0.00,24.74,28.52,31.25,4.70,26.84,994.17,2030.99,3444.03,3299.99,3578.47,350.46,338.32,1.58,0000 0000 0000 0000 000000
2015-05-11 09:38:07,0.08,0.05,0.00,24.74,28.51,31.23,4.62,26.83,994.17,2030.99,3442.83,3299.19,3577.94,350.47,338.37,1.61,0000 0000 0000 0000 000000
2015-05-11 09:43:08,0.10,0.05,0.00,24.74,28.50,31.24,4.65,26.80,994.17,2031.00,3441.49,3298.64,3576.87,349.88,337.95,1.64,0000 0000 0000 0000 000000
2015-05-11 09:48:09,0.15,0.06,0.00,24.71,28.47,31.21,4.71,26.77,994.18,2031.00,3439.33,3297.37,3575.48,350.32,338.37,1.67,0000 0000 0000 0000 000000
2015-05-11 09:53:10,0.14,0.06,0.00,24.70,28.46,31.19,4.66,26.77,994.28,2031.00,3437.13,3296.09,3573.95,349.90,338.01,1.70,0000 0000 0000 0000 000000
2015-05-11 09:58:12,0.16,0.06,0.00,24.68,28.45,31.18,4.58,26.82,994.46,2031.01,3434.89,3294.75,3572.50,349.81,338.07,1.73,0000 0000 0000 0000 000000
2015-05-11 10:03:13,0.07,0.07,0.00,24.66,28.43,31.17,4.69,26.85,994.58,2031.02,3433.49,3294.01,3571.53,350.25,338.31,1.76,0000 0000 0000 0000 000000
2015-05-11 10:08:14,0.12,0.07,0.00,24.64,28.42,31.16,4.59,26.78,994.61,2031.07,3431.94,3293.22,3570.49,349.46,337.77,1.79,0000 0000 0000 0000 000000
2015-05-11 10:13:15,0.16,0.08,0.00,24.62,28.40,31.14,4.64,26.83,994.60,2031.24,3429.81,3292.05,3569.08,350.11,338.47,1.81,0000 0000 0000 0000 000000
2015-05-11 10:18:17,0.16,0.08,0.00,24.60,28.39,31.13,4.66,26.84,994.63,2031.29,3427.56,3290.80,3567.65,350.33,338.67,1.84,0000 0000 0000 0000 000000
2015-05-11 10:23:18,0.14,0.09,0.00,24.57,28.37,31.11,4.63,26.93,994.64,2031.43,3425.60,3289.76,3566.29,349.92,338.35,1.87,0000 0000 0000 0000 000000
2015-05-11 10:28:19,0.08,0.09,0.00,24.56,28.35,31.10,4.70,26.88,994.64,2031.64,3424.72,3289.14,3565.70,350.32,338.70,1.90,0000 0000 0000 0000 000000
2015-05-11 10:33:20,0.14,0.09,0.00,24.55,28.34,31.08,4.70,26.86,994.64,2031.81,3423.16,3288.43,3564.50,349.91,338.35,1.93,0000 0000 0000 0000 000000
2015-05-11 10:38:22,0.03,0.09,0.00,24.55,28.32,31.08,4.65,27.00,994.65,2031.78,3422.18,3288.01,3564.18,350.26,338.46,1.96,0000 0000 0000 0000 000000
2015-05-11 10:43:23,0.12,0.10,0.00,24.52,28.30,31.05,4.64,26.91,994.66,2031.92,3421.00,3287.59,3563.04,349.99,338.22,1.99,0000 0000 0000 0000 000000
2015-05-11 10:48:24,0.10,0.10,0.00,24.50,28.29,31.06,4.64,26.90,994.66,2031.96,3419.51,3286.77,3561.98,350.18,338.64,2.02,0000 0000 0000 0000 000000
2015-05-11 10:53:25,0.09,0.10,0.00,24.48,28.27,31.04,4.75,26.82,994.65,2031.97,3418.06,3285.93,3560.93,350.54,339.16,2.05,0000 0000 0000 0000 000000
2015-05-11 10:58:26,0.11,0.11,0.00,24.46,28.26,31.03,4.60,26.84,994.66,2031.99,3416.31,3285.06,3559.79,349.80,338.30,2.08,0000 0000 0000 0000 000000
2015-05-11 11:03:28,0.12,0.11,0.00,24.44,28.25,30.99,4.62,26.79,994.68,2031.99,3414.51,3284.16,3558.52,349.59,338.47,2.11,0000 0000 0000 0000 000000
2015-05-11 11:08:29,0.11,0.11,0.00,24.42,28.23,31.00,4.65,26.80,994.68,2031.99,3412.78,3283.15,3557.28,350.49,339.03,2.14,0000 0000 0000 0000 000000
2015-05-11 11:13:30,0.11,0.12,0.00,24.42,28.22,30.97,4.67,26.76,994.84,2031.99,3411.09,3282.38,3556.19,350.07,338.80,2.17,0000 0000 0000 0000 000000
2015-05-11 11:18:31,0.10,0.12,0.00,24.40,28.20,30.96,4.71,26.92,994.98,2031.99,3409.46,3281.53,3555.00,350.24,338.82,2.20,0000 0000 0000 0000 000000
2015-05-11 11:23:32,0.11,0.12,0.00,24.38,28.19,30.95,4.71,26.79,995.05,2031.99,3407.85,3280.73,3553.88,350.13,338.83,2.22,0000 0000 0000 0000 000000
2015-05-11 11:28:33,0.14,0.12,0.00,24.36,28.17,30.93,4.62,26.71,995.03,2031.99,3405.86,3279.65,3552.60,349.49,338.22,2.25,0000 0000 0000 0000 000000
2015-05-11 11:33:35,0.12,0.13,0.00,24.34,28.17,30.92,4.68,26.79,994.88,2031.99,3403.93,3278.57,3551.24,350.15,338.86,2.28,0000 0000 0000 0000 000000
2015-05-11 11:38:36,0.10,0.13,0.00,24.32,28.15,30.91,4.64,26.93,994.79,2031.99,3402.24,3277.71,3550.11,349.65,338.30,2.31,0000 0000 0000 0000 000000
2015-05-11 11:43:38,0.16,0.14,0.00,24.30,28.14,30.89,4.69,26.90,994.77,2032.00,3400.14,3276.46,3548.39,350.28,339.01,2.34,0000 0000 0000 0000 000000
2015-05-11 11:48:39,0.12,0.14,0.00,24.30,28.12,30.88,4.66,26.97,994.70,2032.01,3398.12,3275.32,3546.92,350.49,339.18,2.37,0000 0000 0000 0000 000000
2015-05-11 11:53:40,0.11,0.14,0.00,24.27,28.11,30.87,4.69,26.96,994.66,2032.02,3396.45,3274.50,3545.79,350.38,339.03,2.40,0000 0000 0000 0000 000000
2015-05-11 11:58:42,0.13,0.15,0.00,24.23,28.10,30.86,4.64,26.99,994.67,2032.02,3394.52,3273.38,3544.40,350.17,338.88,2.43,0000 0000 0000 0000 000000
2015-05-11 12:03:43,0.14,0.15,0.00,24.20,28.08,30.85,4.58,26.84,994.65,2032.01,3392.51,3272.27,3542.84,349.61,338.54,2.46,0000 0000 0000 0000 000000
2015-05-11 12:08:44,0.12,0.16,0.00,24.19,28.07,30.84,4.65,26.93,994.64,2032.04,3390.78,3271.22,3541.58,350.15,338.96,2.49,0000 0000 0000 0000 000000
2015-05-11 12:13:45,0.13,0.16,0.00,24.17,28.05,30.82,4.65,26.89,994.64,2032.05,3388.78,3270.10,3540.13,349.86,338.71,2.52,0000 0000 0000 0000 000000
2015-05-11 12:18:46,0.21,0.16,0.00,24.14,28.04,30.80,4.64,26.94,994.64,2032.21,3386.42,3268.78,3538.49,350.00,339.09,2.55,0000 0000 0000 0000 000000
2015-05-11 12:23:48,0.13,0.17,0.00,24.11,28.02,30.80,4.62,26.95,994.65,2032.32,3384.32,3267.63,3536.93,349.88,339.12,2.58,0000 0000 0000 0000 000000
2015-05-11 12:28:49,0.23,0.18,0.00,24.09,28.01,30.79,4.70,26.97,994.64,2032.65,3381.85,3266.22,3535.26,350.06,339.06,2.61,0000 0000 0000 0000 000000
2015-05-11 12:33:50,0.15,0.18,0.00,24.07,28.00,30.77,4.67,27.01,994.64,2032.61,3379.32,3264.61,3533.34,350.25,339.19,2.63,0000 0000 0000 0000 000000
2015-05-11 12:38:51,0.06,0.18,0.00,24.06,27.98,30.75,4.73,27.02,994.64,2032.60,3378.02,3264.04,3532.84,350.24,339.33,2.66,0000 0000 0000 0000 000000
2015-05-11 12:43:52,0.12,0.19,0.00,24.02,27.97,30.75,4.76,26.89,994.64,2032.89,3376.71,3263.73,3531.80,350.47,339.49,2.69,0000 0000 0000 0000 000000
2015-05-11 12:48:54,0.09,0.19,0.00,23.98,27.95,30.73,4.72,26.96,994.64,2032.95,3375.46,3263.04,3530.85,350.36,339.39,2.72,0000 0000 0000 0000 000000
2015-05-11 12:53:55,0.11,0.19,0.00,23.96,27.94,30.71,4.69,26.96,994.64,2032.98,3373.70,3262.36,3529.84,350.21,339.27,2.75,0000 0000 0000 0000 000000
2015-05-11 12:58:56,0.04,0.20,0.00,23.94,27.92,30.71,4.60,26.99,994.63,2032.98,3372.68,3262.03,3529.05,349.79,338.95,2.78,0000 0000 0000 0000 000000
2015-05-11 13:03:57,0.10,0.20,0.00,23.91,27.91,30.69,4.66,27.02,994.63,2032.99,3371.18,3261.34,3528.11,350.29,339.28,2.81,0000 0000 0000 0000 000000
2015-05-11 13:08:58,0.11,0.20,0.00,23.87,27.90,30.67,4.67,27.02,994.64,2032.99,3369.51,3260.66,3527.09,350.58,339.68,2.84,0000 0000 0000 0000 000000